Location: Lourdes
(43.1000°N, 0.0500°W)
Time: 02:09:40
(UTC+00:00)

Cosmos 773 Rocket - Pass Details

Date: 19 April 2021
Orbit: 745 x 777 km, 74.1° (Epoch: 10 May)

Event Time Altitude Azimuth Distance (km) Brightness Sun altitude
Rises 00:59:42 0° 341° (NNW) 3,258 7.9 -34.0°
Reaches altitude 10° 01:02:06 10° 343° (NNW) 2,330 7.1 -33.8°
Enters shadow 01:05:15 36° 352° (N) 1,207 5.3 -33.7°
